Regional Weather Roundup
Issued by NWS

Home | Current Version | Previous Version | Text Only | Print | Product List | Glossary On
Versions: 1 2 3 4 5 6 7 8 9 10 11 12 13 14 15 16 17 18 19 20 21 22 23 24 25 26 27 28 29 30 31 32 33 34 35 36 37 38 39 40 41 42 43 44 45 46 47 48 49 50
000
ASUS43 KFSD 311502
RWRSD

WEATHER ROUNDUP FOR SOUTH DAKOTA
NATIONAL WEATHER SERVICE SIOUX FALLS SD
1000 AM CDT FRI JUL 31 2015

NOTE: "FAIR" INDICATES FEW OR NO CLOUDS BELOW 12,000 FEET WITH NO
SIGNIFICANT WEATHER AND/OR OBSTRUCTIONS TO VISIBILITY.


SDZ001>005-009-010-012>017-311600-
NORTHWEST AND NORTH CENTRAL SOUTH DAKOTA

CITY           SKY/WX    TMP DP  RH WIND       PRES   REMARKS
BUFFALO          N/A     74  50  42 CALM      30.18S
FAITH            N/A     76  52  43 SE5       30.21S
MOBRIDGE       SUNNY     74  56  53 S3        30.16S
$$

SDZ012>016-024>037-041>051-057-063-072>074-311600-
SOUTHWEST AND SOUTH CENTRAL SOUTH DAKOTA

CITY           SKY/WX    TMP DP  RH WIND       PRES   REMARKS
RAPID CTY ARPT SUNNY     72  53  51 N8        30.24R
PIERRE         SUNNY     76  53  44 SE9       30.16F
CUSTER         SUNNY     76  44  32 CALM      30.38S
ELLSWORTH AFB  SUNNY     72  51  46 N9        30.24R
PHILIP         SUNNY     72  58  61 E5        30.18F
PINE RIDGE     SUNNY     74  57  55 NW3       30.24S
WINNER         FAIR      81  59  47 E8        30.18S
$$

SDZ004>011-016>023-039-040-311600-
NORTHEAST SOUTH DAKOTA

CITY           SKY/WX    TMP DP  RH WIND       PRES   REMARKS
ABERDEEN       SUNNY     72  57  59 S3        30.16S
WATERTOWN      SUNNY     74  53  48 W5        30.17S
BROOKINGS      SUNNY     73  55  53 N6        30.19S
SISSETON         N/A     74  56  53 N8        30.12F
$$

SDZ017-020-022-023-036>040-048>070-311600-
SOUTHEAST SOUTH DAKOTA

CITY           SKY/WX    TMP DP  RH WIND       PRES   REMARKS
SIOUX FALLS    MOSUNNY   76  61  59 NE7       30.17S
HURON          SUNNY     76  56  49 NE3       30.16S
CHAMBERLAIN    SUNNY     74  57  55 E7        30.18S
MITCHELL       SUNNY     76  60  57 CALM      30.17S
YANKTON        SUNNY     75  70  83 CALM      30.13R
$$

ABBREVIATIONS USED IN REMARKS
   TC - TEMPERATURE IN CELSIUS
  WCI - WIND CHILL INDEX
   HX - HEAT INDEX
  VSB - VISIBILITY




USA.gov is the U.S. government's official web portal to all federal, state and local government web resources and services.